FW2418 Weather Reports


time (UTC)temp
C
wind
direction
speed
KPH
gust
KPH
rain 1hr
cm
rain 24hr
cm
rain mn
cm
humidity
%
barometer
mb
20260506034111 18 124 0.0 0.0 0.00 0.00 0.00 86 1014.3
20260506033039 19 124 0.0 0.0 0.00 0.00 0.00 82 1014.0
20260506032038 19 124 0.0 0.0 0.00 0.00 0.00 83 1014.0
20260506031037 19 124 0.0 0.0 0.00 0.00 0.00 81 1014.0
20260506030036 20 124 0.0 0.0 0.00 0.00 0.00 80 1014.0
20260506025036 20 124 0.0 1.6 0.00 0.00 0.00 79 1014.0
20260506024004 20 139 0.0 1.6 0.00 0.00 0.00 79 1014.0
20260506023003 20 139 0.0 1.6 0.00 0.00 0.00 77 1014.0
20260506022003 20 139 0.0 1.6 0.00 0.00 0.00 76 1014.0
20260506021002 20 93 0.0 1.6 0.00 0.00 0.00 74 1014.0
20260506015929 20 93 1.6 1.6 0.00 0.00 0.00 73 1014.0
20260506014857 20 89 0.0 0.0 0.00 0.00 0.00 73 1014.0
20260506013825 21 89 0.0 0.0 0.00 0.00 0.00 71 1013.6
20260506012824 21 89 0.0 0.0 0.00 0.00 0.00 69 1014.0
20260506011823 21 89 0.0 1.6 0.00 0.00 0.00 67 1013.6
20260506010822 21 89 0.0 1.6 0.00 0.00 0.00 66 1013.6
20260506005821 22 89 0.0 1.6 0.00 0.00 0.00 65 1013.6
20260506004821 22 126 0.0 3.2 0.00 0.00 0.00 64 1013.3
20260506003820 22 125 1.6 3.2 0.00 0.00 0.00 63 1013.3
20260506002819 22 125 1.6 6.4 0.00 0.00 0.00 62 1013.0
20260506001818 23 115 1.6 6.4 0.00 0.00 0.00 61 1013.0
20260506000817 23 53 1.6 8.0 0.00 0.00 0.00 62 1012.9
20260505235745 23 114 3.2 8.0 0.00 0.00 0.00 61 1012.9
20260505234744 24 119 3.2 8.0 0.00 0.00 0.00 60 1012.9
20260505233743 24 80 3.2 9.7 0.00 0.00 0.00 58 1012.9
20260505232742 25 121 3.2 9.7 0.00 0.00 0.00 58 1012.9
20260505231639 25 81 1.6 11.3 0.00 0.00 0.00 56 1012.9
20260505230638 25 76 3.2 8.0 0.00 0.00 0.00 56 1012.9
20260505225638 25 131 3.2 12.9 0.00 0.00 0.00 56 1012.9
20260505224637 25 115 3.2 12.9 0.00 0.00 0.00 55 1012.9
20260505223636 26 122 3.2 11.3 0.00 0.00 0.00 55 1012.9
20260505222635 26 119 3.2 11.3 0.00 0.00 0.00 55 1012.9
20260505221634 26 88 4.8 9.7 0.00 0.00 0.00 54 1012.9
20260505220633 26 66 3.2 9.7 0.00 0.00 0.00 53 1012.9
20260505215632 26 51 4.8 11.3 0.00 0.00 0.00 53 1012.9
20260505214631 26 84 3.2 12.9 0.00 0.00 0.00 52 1012.9
20260505213631 27 77 4.8 11.3 0.00 0.00 0.00 53 1012.9
20260505212630 27 73 4.8 11.3 0.00 0.00 0.00 52 1012.9
20260505211629 27 38 4.8 11.3 0.00 0.00 0.00 52 1012.9
20260505210628 27 82 3.2 12.9 0.00 0.00 0.00 53 1012.6
20260505205627 27 57 4.8 11.3 0.00 0.00 0.00 52 1012.6
20260505204626 27 84 3.2 14.5 0.00 0.00 0.00 53 1012.6
20260505203625 27 45 4.8 12.9 0.00 0.00 0.00 53 1012.6
20260505202522 27 54 3.2 14.5 0.00 0.00 0.00 53 1012.9
20260505201521 27 52 3.2 12.9 0.00 0.00 0.00 52 1012.9
20260505200449 27 60 4.8 14.5 0.00 0.00 0.00 52 1013.3
20260505195448 28 44 6.4 14.5 0.00 0.00 0.00 52 1013.3
20260505194345 27 72 4.8 14.5 0.00 0.00 0.00 54 1013.3
20260505193344 27 30 4.8 17.7 0.00 0.00 0.00 54 1013.3
20260505192344 28 22 3.2 14.5 0.00 0.00 0.00 52 1013.3
20260505191311 28 15 6.4 16.1 0.00 0.00 0.00 51 1013.3
20260505190311 28 26 4.8 14.5 0.00 0.00 0.00 50 1013.3
20260505185309 28 21 3.2 9.7 0.00 0.00 0.00 51 1014.0
20260505184135 29 72 3.2 11.3 0.00 0.00 0.00 49 1013.6
20260505183134 30 28 3.2 12.9 0.00 0.00 0.00 48 1013.6
20260505182133 28 181 3.2 9.7 0.00 0.00 0.00 51 1013.6
20260505181133 28 74 3.2 11.3 0.00 0.00 0.00 51 1014.0
20260505180132 27 66 4.8 12.9 0.00 0.00 0.00 54 1014.3
20260505175131 27 38 4.8 9.7 0.00 0.00 0.00 55 1014.0
20260505174130 27 35 1.6 11.3 0.00 0.00 0.00 55 1014.0
20260505173129 26 92 1.6 11.3 0.00 0.00 0.00 56 1014.3
20260505172128 27 54 4.8 11.3 0.00 0.00 0.00 55 1014.3
20260505171127 27 56 3.2 14.5 0.00 0.00 0.00 55 1014.3
20260505170126 28 54 4.8 16.1 0.00 0.00 0.00 53 1014.3
20260505165125 28 40 4.8 12.9 0.00 0.00 0.00 51 1014.7
20260505164124 28 48 4.8 14.5 0.00 0.00 0.00 52 1014.3
20260505163123 28 122 4.8 11.3 0.00 0.00 0.00 54 1014.3
20260505162123 28 125 3.2 12.9 0.00 0.00 0.00 54 1014.3
20260505161121 27 63 3.2 12.9 0.00 0.00 0.00 54 1014.6
20260505153015 26 58 3.2 9.7 0.00 0.00 0.00 57 1014.3
20260505151943 27 21 3.2 11.3 0.00 0.00 0.00 56 1014.3
20260505150942 27 112 4.8 11.3 0.00 0.00 0.00 55 1014.3
20260505124551 22 55 3.2 6.4 0.00 0.00 0.00 80 1014.0
20260505123551 21 42 3.2 4.8 0.00 0.00 0.00 83 1014.0
20260505122550 20 107 1.6 3.2 0.00 0.00 0.00 86 1014.0
20260505121549 19 105 1.6 1.6 0.00 0.00 0.00 91 1014.0
20260505120548 17 82 1.6 1.6 0.00 0.00 0.00 97 1013.6
20260505115547 15 129 0.0 0.0 0.00 0.00 0.00 98 1013.6
20260505114515 15 129 0.0 0.0 0.00 0.00 0.00 98 1013.9
20260505113514 14 129 0.0 0.0 0.00 0.00 0.00 98 1013.6
20260505112513 13 128 0.0 0.0 0.00 0.00 0.00 98 1013.6
20260505111513 13 128 0.0 0.0 0.00 0.00 0.00 98 1013.3
20260505110512 13 129 0.0 0.0 0.00 0.00 0.00 97 1013.3
20260505101436 13 129 0.0 0.0 0.00 0.00 0.00 97 1013.3
20260505100435 13 129 0.0 0.0 0.00 0.00 0.00 97 1012.9
20260505095434 13 128 0.0 0.0 0.00 0.00 0.00 97 1012.9
20260505094433 13 129 0.0 0.0 0.00 0.00 0.00 97 1012.6
20260505093432 13 128 0.0 0.0 0.00 0.00 0.00 97 1012.9
20260505092431 13 128 0.0 0.0 0.00 0.00 0.00 97 1012.6
20260505091359 13 129 0.0 0.0 0.00 0.00 0.00 97 1012.6
20260505090358 13 129 0.0 0.0 0.00 0.00 0.00 97 1012.6
20260505085358 13 129 0.0 0.0 0.00 0.00 0.00 97 1012.6
20260505084356 13 128 0.0 0.0 0.00 0.00 0.00 97 1012.6
20260505083356 13 128 0.0 0.0 0.00 0.00 0.00 96 1012.6
20260505082354 13 128 0.0 0.0 0.00 0.00 0.00 96 1012.3
20260505081354 13 129 0.0 0.0 0.00 0.00 0.00 96 1012.3
20260505080353 13 129 0.0 0.0 0.00 0.00 0.00 96 1012.6
20260505075352 13 128 0.0 0.0 0.00 0.00 0.00 96 1012.6
20260505074351 13 129 0.0 0.0 0.00 0.00 0.00 96 1012.6
20260505073350 13 128 0.0 0.0 0.00 0.00 0.00 96 1012.6
20260505072349 13 128 0.0 0.0 0.00 0.00 0.00 96 1012.6
20260505071348 13 128 0.0 0.0 0.00 0.00 0.00 96 1012.6
20260505070316 14 128 0.0 0.0 0.00 0.00 0.00 96 1012.6
20260505065315 14 128 0.0 0.0 0.00 0.00 0.00 96 1012.6
20260505064243 14 128 0.0 0.0 0.00 0.00 0.00 95 1012.9
20260505063242 14 128 0.0 0.0 0.00 0.00 0.00 95 1012.9
20260505062241 15 129 0.0 0.0 0.00 0.00 0.00 95 1012.9
20260505061240 15 129 0.0 0.0 0.00 0.00 0.00 95 1012.9
20260505060239 15 128 0.0 0.0 0.00 0.00 0.00 95 1012.9
20260505055207 15 128 0.0 0.0 0.00 0.00 0.00 94 1013.3
20260505054206 15 129 0.0 0.0 0.00 0.00 0.00 94 1013.3
20260505053205 15 129 0.0 0.0 0.00 0.00 0.00 94 1013.6
20260505052205 15 129 0.0 0.0 0.00 0.00 0.00 94 1013.6
20260505051132 15 128 0.0 0.0 0.00 0.00 0.00 93 1014.0
20260505050132 15 129 0.0 0.0 0.00 0.00 0.00 93 1014.0
20260505041128 16 129 0.0 0.0 0.00 0.00 0.00 89 1014.0
20260505040127 16 128 0.0 0.0 0.00 0.00 0.00 89 1014.0
20260505035126 16 129 0.0 0.0 0.00 0.00 0.00 88 1014.3